When you browse on this site, cookies collect data to enhance your experience and personalize the content and advertising you see.
Visit our Privacy Policy to learn more. By continuing to use the site, you agree to this use of cookies and data.
  • In Portugal
  • List of Countries
  • For 7 days
  • Water Temperature
  • Satellite Maps
  • Weather Map
  • Weather Widgets
  • user-avatar
    Login

    Hourly Weather Kitzbuhel

    Today, 21 January, Monday

    Time Temperature Precipitation Wind Pressure Humidity
    00:00 -7°C° 0 mm 1 mps 674 mmHg 78%
    01:00 -7°C° 0 mm 1 mps 674 mmHg 79%
    02:00 -7°C° 0 mm 1 mps 674 mmHg 79%
    03:00 -7°C° 0 mm 1 mps 674 mmHg 79%
    04:00 -7°C° 0 mm 1 mps 674 mmHg 80%
    05:00 -7°C° 0 mm 1 mps 674 mmHg 80%
    06:00 -8°C° 0 mm 1 mps 674 mmHg 80%
    07:00 -8°C° 0 mm 1 mps 674 mmHg 80%
    08:00 -6°C° 0 mm 1 mps 675 mmHg 81%
    09:00 -4°C° 0 mm 1 mps 675 mmHg 82%
    10:00 -4°C° 0 mm 0 mps 676 mmHg 83%
    11:00 -3°C° 0 mm 0 mps 675 mmHg 83%
    12:00 -1°C° 0 mm 1 mps 675 mmHg 84%
    13:00 0°C° 0 mm 1 mps 675 mmHg 84%
    14:00 -1°C° 0 mm 1 mps 675 mmHg 87%
    15:00 -1°C° 0 mm 1 mps 674 mmHg 90%
    16:00 -2°C° 0 mm 1 mps 674 mmHg 93%
    17:00 -3°C° 0 mm 1 mps 674 mmHg 94%
    18:00 -6°C° 0 mm 1 mps 674 mmHg 94%
    19:00 -7°C° 0 mm 1 mps 674 mmHg 94%
    20:00 -7°C° 0 mm 1 mps 674 mmHg 92%
    21:00 -7°C° 0 mm 1 mps 674 mmHg 91%
    22:00 -8°C° 0 mm 1 mps 674 mmHg 89%
    23:00 -8°C° 0 mm 1 mps 674 mmHg 88%

    Tomorrow, 22 January, Tuesday

    Time Temperature Precipitation Wind Pressure Humidity
    00:00 -8°C° 0 mm 1 mps 674 mmHg 87%
    01:00 -8°C° 0 mm 1 mps 673 mmHg 87%
    02:00 -8°C° 0 mm 1 mps 673 mmHg 86%
    03:00 -8°C° 0 mm 1 mps 672 mmHg 84%
    04:00 -10°C° 0 mm 2 mps 672 mmHg 83%
    05:00 -9°C° 0 mm 1 mps 671 mmHg 82%
    06:00 -9°C° 0 mm 1 mps 671 mmHg 80%
    07:00 -9°C° 0 mm 1 mps 670 mmHg 78%
    08:00 -7°C° 0 mm 1 mps 670 mmHg 79%
    09:00 -6°C° 0 mm 1 mps 670 mmHg 79%
    10:00 -3°C° 0 mm 1 mps 670 mmHg 79%
    11:00 -2°C° 0 mm 1 mps 669 mmHg 78%
    12:00 -1°C° 0 mm 1 mps 668 mmHg 77%
    13:00 0°C° 0 mm 1 mps 668 mmHg 75%
    14:00 0°C° 0 mm 1 mps 667 mmHg 80%
    15:00 -1°C° 0 mm 1 mps 666 mmHg 85%
    16:00 -2°C° 0 mm 1 mps 665 mmHg 89%
    17:00 -3°C° 0 mm 1 mps 665 mmHg 87%
    18:00 -4°C° 0 mm 1 mps 664 mmHg 85%
    19:00 -8°C° 0 mm 2 mps 664 mmHg 82%
    20:00 -8°C° 0 mm 2 mps 664 mmHg 79%
    21:00 -8°C° 0 mm 2 mps 664 mmHg 75%
    22:00 -8°C° 0 mm 2 mps 663 mmHg 72%
    23:00 -8°C° 0 mm 2 mps 663 mmHg 71%

    Day after tomorrow, 23 January, Wednesday

    Time Temperature Precipitation Wind Pressure Humidity
    00:00 -8°C° 0 mm 2 mps 663 mmHg 71%
    01:00 -7°C° 0 mm 1 mps 662 mmHg 70%
    02:00 -7°C° 0 mm 1 mps 662 mmHg 70%
    03:00 -7°C° 0 mm 1 mps 662 mmHg 71%
    04:00 -7°C° 0 mm 1 mps 661 mmHg 71%
    05:00 -7°C° 0 mm 1 mps 661 mmHg 71%
    06:00 -7°C° 0 mm 1 mps 661 mmHg 72%
    07:00 -7°C° 0 mm 1 mps 661 mmHg 72%
    08:00 -6°C° 0 mm 1 mps 662 mmHg 74%
    09:00 -5°C° 0 mm 0 mps 662 mmHg 75%
    10:00 -4°C° 0 mm 0 mps 662 mmHg 77%
    11:00 -3°C° 0 mm 0 mps 662 mmHg 77%
    12:00 -1°C° 0 mm 1 mps 662 mmHg 78%
    13:00 0°C° 0 mm 1 mps 662 mmHg 78%
    14:00 -1°C° 0 mm 1 mps 662 mmHg 83%
    15:00 -2°C° 0 mm 1 mps 662 mmHg 87%
    16:00 -2°C° 0 mm 1 mps 662 mmHg 92%
    17:00 -4°C° 0 mm 1 mps 662 mmHg 92%
    18:00 -6°C° 0 mm 1 mps 662 mmHg 92%
    19:00 -7°C° 0 mm 1 mps 663 mmHg 92%
    20:00 -8°C° 0 mm 1 mps 663 mmHg 90%
    21:00 -8°C° 0 mm 1 mps 664 mmHg 88%
    22:00 -8°C° 0 mm 1 mps 664 mmHg 86%
    23:00 -8°C° 0 mm 1 mps 664 mmHg 85%

    24 January, Thursday

    Time Temperature Precipitation Wind Pressure Humidity
    00:00 -9°C° 0 mm 1 mps 665 mmHg 84%
    01:00 -9°C° 0 mm 1 mps 665 mmHg 83%
    02:00 -9°C° 0 mm 1 mps 665 mmHg 83%
    03:00 -9°C° 0 mm 1 mps 665 mmHg 84%
    04:00 -9°C° 0 mm 1 mps 666 mmHg 85%
    05:00 -9°C° 0 mm 0 mps 666 mmHg 86%
    06:00 -9°C° 0 mm 0 mps 667 mmHg 87%
    07:00 -9°C° 0 mm 0 mps 667 mmHg 88%
    08:00 -8°C° 0 mm 0 mps 668 mmHg 88%
    09:00 -6°C° 0 mm 0 mps 668 mmHg 88%
    10:00 -5°C° 0 mm 0 mps 669 mmHg 88%
    11:00 -4°C° 0 mm 0 mps 669 mmHg 88%
    12:00 -3°C° 0 mm 1 mps 669 mmHg 88%
    13:00 -2°C° 0 mm 1 mps 669 mmHg 89%
    14:00 -2°C° 0 mm 1 mps 669 mmHg 90%
    15:00 -3°C° 0 mm 1 mps 670 mmHg 91%
    16:00 -3°C° 0 mm 1 mps 670 mmHg 93%
    17:00 -4°C° 0 mm 1 mps 670 mmHg 93%
    18:00 -6°C° 0 mm 1 mps 671 mmHg 94%
    19:00 -7°C° 0 mm 0 mps 671 mmHg 95%
    20:00 -7°C° 0 mm 1 mps 671 mmHg 94%
    21:00 -7°C° 0 mm 1 mps 672 mmHg 94%
    22:00 -8°C° 0 mm 1 mps 672 mmHg 93%
    23:00 -8°C° 0 mm 1 mps 672 mmHg 93%

    25 January, Friday

    Time Temperature Precipitation Wind Pressure Humidity
    00:00 -8°C° 0 mm 1 mps 673 mmHg 92%
    01:00 -8°C° 0 mm 1 mps 673 mmHg 92%
    02:00 -8°C° 0 mm 1 mps 673 mmHg 92%
    03:00 -8°C° 0 mm 1 mps 673 mmHg 93%
    04:00 -9°C° 0 mm 1 mps 673 mmHg 93%
    05:00 -9°C° 0 mm 1 mps 673 mmHg 92%
    06:00 -9°C° 0 mm 1 mps 673 mmHg 91%
    07:00 -9°C° 0 mm 1 mps 673 mmHg 90%
    08:00 -7°C° 0 mm 1 mps 674 mmHg 89%
    09:00 -6°C° 0 mm 1 mps 674 mmHg 88%
    10:00 -4°C° 0 mm 1 mps 675 mmHg 87%
    11:00 -3°C° 0 mm 1 mps 675 mmHg 87%
    12:00 -2°C° 0 mm 1 mps 674 mmHg 87%
    13:00 -2°C° 0 mm 1 mps 674 mmHg 87%
    14:00 -2°C° 0 mm 1 mps 674 mmHg 87%
    15:00 -2°C° 0 mm 1 mps 674 mmHg 88%
    16:00 -2°C° 0 mm 1 mps 674 mmHg 89%
    17:00 -4°C° 0 mm 1 mps 674 mmHg 88%
    18:00 -6°C° 0 mm 1 mps 674 mmHg 88%
    19:00 -7°C° 0 mm 1 mps 674 mmHg 87%
    20:00 -7°C° 0 mm 1 mps 674 mmHg 85%
    21:00 -7°C° 0 mm 1 mps 674 mmHg 82%
    22:00 -9°C° 0 mm 2 mps 674 mmHg 80%
    23:00 -8°C° 0 mm 2 mps 674 mmHg 78%

    26 January, Saturday

    Time Temperature Precipitation Wind Pressure Humidity
    00:00 -8°C° 0 mm 2 mps 674 mmHg 75%
    01:00 -8°C° 0 mm 2 mps 674 mmHg 73%
    02:00 -8°C° 0 mm 2 mps 674 mmHg 72%
    03:00 -7°C° 0 mm 2 mps 673 mmHg 71%
    04:00 -6°C° 0 mm 2 mps 673 mmHg 70%
    05:00 -4°C° 0 mm 1 mps 673 mmHg 73%
    06:00 -3°C° 0 mm 1 mps 673 mmHg 75%
    07:00 -2°C° 0 mm 1 mps 673 mmHg 78%
    08:00 -1°C° 0 mm 1 mps 673 mmHg 80%
    09:00 0°C° 0 mm 1 mps 673 mmHg 82%
    10:00 +1°C° 0 mm 1 mps 673 mmHg 84%
    11:00 +2°C° 0 mm 1 mps 673 mmHg 88%
    12:00 +2°C° 0 mm 0 mps 672 mmHg 91%
    13:00 +2°C° 0 mm 0 mps 671 mmHg 94%
    14:00 +2°C° 0 mm 0 mps 671 mmHg 93%
    15:00 +2°C° 0 mm 0 mps 670 mmHg 92%
    16:00 +2°C° 0 mm 0 mps 670 mmHg 91%
    17:00 +2°C° 0 mm 1 mps 669 mmHg 89%
    18:00 +1°C° 0 mm 1 mps 669 mmHg 87%
    19:00 0°C° 0 mm 1 mps 669 mmHg 85%
    20:00 -1°C° 0 mm 1 mps 668 mmHg 84%
    21:00 -1°C° 0 mm 1 mps 668 mmHg 83%
    22:00 -3°C° 0 mm 2 mps 667 mmHg 82%
    23:00 -4°C° 0 mm 2 mps 666 mmHg 81%
    Show more